Powrót do katalogu

HJ-2F

AktywnyNaukaSSO
NORAD 57519·PAYLOAD·🇨🇳 China

Wystrzelony Aug 8, 2023 z Taiyuan Satellite Launch Center

Loading…

Następne Przeloty (najbliższe 24 godziny)

TLE

ŚwieżeSource: Space-Track

Epoka: Sep 14, 2026, 15:25 UTC

1 57519U 23116A   26257.64247043  .00005035  00000-0  23653-3 0  9997
2 57519  97.3889 261.3272 0006774 201.4625 158.6327 15.20037225172368

Śledź HJ-2F w czasie rzeczywistym z AllMySat

Download on the App Store